| time (UTC) | temp F | wind direction | speed MPH | gust MPH | rain 1hr in | rain 24hr in | rain mn in | humidity % | barometer mb |
| 20260903200101 | 90 | 193 | 10.0 | 15.0 | 0.00 | 0.00 | 0.00 | 32 | 1016.3 |
| 20260903190037 | 89 | 149 | 4.0 | 14.0 | 0.00 | 0.00 | 0.00 | 33 | 1016.9 |
| 20260903183024 | 89 | 178 | 5.0 | 12.0 | 0.00 | 0.00 | 0.00 | 33 | 1017.4 |
| 20260903180035 | 87 | 212 | 6.0 | 14.0 | 0.00 | 0.00 | 0.00 | 34 | 1018.0 |
| 20260903173040 | 86 | 189 | 3.0 | 11.0 | 0.00 | 0.00 | 0.00 | 36 | 1018.2 |
| 20260903170041 | 84 | 96 | 5.0 | 10.0 | 0.00 | 0.00 | 0.00 | 37 | 1018.1 |
| 20260903163028 | 80 | 22 | 1.0 | 5.0 | 0.00 | 0.00 | 0.00 | 43 | 1018.3 |
| 20260903160049 | 78 | 38 | 1.0 | 4.0 | 0.00 | 0.00 | 0.00 | 43 | 1018.5 |
| 20260903153046 | 76 | 71 | 0.0 | 0.0 | 0.00 | 0.00 | 0.00 | 44 | 1018.6 |
| 20260903150043 | 73 | 355 | 1.0 | 2.0 | 0.00 | 0.00 | 0.00 | 47 | 1018.7 |
| 20260903143050 | 70 | 46 | 0.0 | 0.0 | 0.00 | 0.00 | 0.00 | 56 | 1018.7 |
| 20260903140027 | 67 | 326 | 0.0 | 0.0 | 0.00 | 0.00 | 0.00 | 56 | 1018.4 |
| 20260903133023 | 64 | 288 | 0.0 | 0.0 | 0.00 | 0.00 | 0.00 | 58 | 1018.1 |
| 20260903023040 | 81 | 247 | 0.0 | 3.0 | 0.00 | 0.00 | 0.00 | 38 | 1016.1 |
| 20260903010035 | 87 | 255 | 4.0 | 7.0 | 0.00 | 0.00 | 0.00 | 31 | 1016.1 |
| 20260903003045 | 88 | 218 | 5.0 | 11.0 | 0.00 | 0.00 | 0.00 | 31 | 1016.1 |
| 20260902223032 | 91 | 155 | 5.0 | 12.0 | 0.00 | 0.13 | 0.00 | 35 | 1016.5 |
| 20260902220036 | 90 | 172 | 8.0 | 13.0 | 0.00 | 0.13 | 0.00 | 35 | 1016.9 |
| 20260902213027 | 89 | 221 | 5.0 | 16.0 | 0.00 | 0.13 | 0.00 | 37 | 1017.3 |
| 20260902210041 | 90 | 187 | 9.0 | 15.0 | 0.00 | 0.13 | 0.00 | 36 | 1017.4 |